Overview Statistics Trail Chart Weather Telemetry Raw packets
 

This is the latest recevied weather packets stored in our database for station/object KI6SYE. If no packets are shown the sender has not sent any weather packets the latest 10 day(s).

<< 31 32 33 34 35 36 37 >>
Time Temp. Humidity Pressure Rain* Wind** Luminosity Snow
1788465248 23.33° C 75% 1013.4 hPa 0 mm - 733 W/m² -
1788464943 23.33° C 75% 1013.5 hPa 0 mm - 734 W/m² -
1788464638 23.33° C 76% 1013.6 hPa 0 mm - 733 W/m² -
1788464333 23.33° C 76% 1013.4 hPa 0 mm - 732 W/m² -
1788464030 23.33° C 76% 1013.6 hPa 0 mm - 729 W/m² -
1788463724 23.33° C 76% 1013.7 hPa 0 mm - 732 W/m² -
1788463420 22.78° C 77% 1013.7 hPa 0 mm - 728 W/m² -
1788463117 22.78° C 77% 1013.7 hPa 0 mm - 727 W/m² -
1788462812 22.78° C 76% 1013.8 hPa 0 mm - 727 W/m² -
1788462511 22.78° C 76% 1013.7 hPa 0 mm - 723 W/m² -
1788462206 23.33° C 76% 1014 hPa 0 mm - 720 W/m² -
1788461900 23.33° C 75% 1013.9 hPa 0 mm - 717 W/m² -
1788461595 22.78° C 76% 1014.1 hPa 0 mm - 712 W/m² -
1788461291 22.78° C 76% 1013.9 hPa 0 mm - 706 W/m² -
1788460988 23.33° C 74% 1014.3 hPa 0 mm - 701 W/m² -
1788460683 22.78° C 76% 1014.2 hPa 0 mm - 697 W/m² -
1788460382 22.78° C 75% 1014.4 hPa 0 mm - 685 W/m² -
1788460081 22.78° C 75% 1014.3 hPa 0 mm - 683 W/m² -
1788459776 22.78° C 75% 1014.3 hPa 0 mm - 675 W/m² -
1788459475 22.78° C 74% 1014.4 hPa 0 mm - 661 W/m² -
1788459170 23.33° C 74% 1014.3 hPa 0 mm - 661 W/m² -
1788458865 23.33° C 74% 1014.5 hPa 0 mm - 650 W/m² -
1788458564 23.33° C 74% 1014.3 hPa 0 mm - 640 W/m² -
1788458259 22.78° C 74% 1014.3 hPa 0 mm - 635 W/m² -
1788457958 22.78° C 75% 1014.2 hPa 0 mm - 630 W/m² -

* Rain latest hour (hover to see other rain measurements)
** Current wind speed in m/s (hover to see current wind gust speed)